Date,TemperatureHighF,TemperatureAvgF,TemperatureLowF,DewpointHighF,DewpointAvgF,DewpointLowF,HumidityHigh,HumidityAvg,HumidityLow,PressureMaxIn,PressureMinIn,WindSpeedMaxMPH,WindSpeedAvgMPH,GustSpeedMaxMPH,PrecipitationSumIn
2013-1-1,41.5,38.2,35.2,41.0,37.7,34.7,98,98,98,30.52,30.37,8,1,0,0.01
2013-1-2,40.3,35.9,32.5,39.8,35.4,32.0,98,98,98,30.37,30.18,4,1,0,0.00
2013-1-3,40.5,35.9,31.8,39.6,35.3,31.3,98,98,92,30.19,30.06,5,1,0,0.46
2013-1-4,48.6,44.5,41.2,48.1,44.0,40.7,98,98,98,30.25,30.12,8,2,0,0.03
2013-1-5,48.4,45.1,43.3,47.9,44.6,42.8,98,98,98,30.16,30.05,5,1,0,0.12
2013-1-6,46.2,44.3,41.9,45.7,43.8,41.4,98,98,98,30.12,29.91,8,3,0,0.07
2013-1-7,53.1,47.5,44.2,52.5,47.0,43.7,98,98,98,30.11,29.72,9,3,0,0.02
2013-1-8,53.4,47.8,42.3,52.8,47.3,41.8,98,98,98,30.11,29.62,14,4,0,1.22
2013-1-9,52.2,44.5,40.3,51.7,44.0,39.8,98,98,98,29.90,29.61,14,2,0,0.93
2013-1-10,40.6,37.0,34.2,40.1,36.5,33.7,98,98,98,30.10,29.89,11,2,0,0.09
2013-1-11,39.4,37.6,36.0,38.2,34.8,31.6,98,90,74,30.27,30.09,17,8,0,0.00
2013-1-30,48.4,38.5,48.0,47.9,18.2,-99.9,98,78,98,30.33,30.31,0,-200,0,0.02
2013-1-31,51.8,49.1,47.3,51.3,48.6,46.8,98,98,98,30.35,30.21,9,2,0,0.01
2013-2-1,50.2,46.8,43.2,49.7,46.3,42.7,98,98,98,30.37,30.28,5,2,0,0.00
2013-2-2,46.2,44.2,41.4,45.7,43.7,40.9,98,98,98,30.36,30.21,9,3,0,0.00
2013-2-3,48.2,45.0,41.7,47.7,44.5,41.2,98,98,98,30.25,30.15,7,1,0,0.00
2013-2-4,50.9,47.1,44.8,50.4,46.6,44.3,98,98,98,30.16,29.81,6,1,0,0.00
2013-2-5,48.7,46.5,44.8,48.2,46.0,44.3,98,98,98,29.85,29.74,9,3,0,0.64
2013-2-6,48.9,45.7,43.3,48.4,45.2,42.8,98,98,98,29.98,29.71,9,3,0,0.40
2013-2-7,47.3,42.8,37.2,46.6,42.3,36.7,98,98,94,30.15,29.72,11,4,0,0.15
2013-2-8,45.5,39.9,35.4,45.0,39.4,34.9,98,98,98,30.26,30.16,3,0,0,0.04
2013-2-9,46.0,42.9,39.9,45.5,42.4,39.4,98,98,98,30.30,30.20,7,2,0,0.02
2013-2-10,44.8,44.1,43.3,44.3,43.6,42.8,98,98,98,30.34,30.28,3,0,0,0.00
2013-2-11,47.7,44.4,40.6,47.2,43.9,40.1,98,98,98,30.32,30.26,8,2,0,0.01
2013-2-12,52.0,46.8,43.7,51.5,46.3,43.2,98,98,98,30.35,30.20,13,3,0,0.00
2013-2-13,49.3,47.5,46.0,48.8,47.0,45.5,98,98,98,30.45,30.26,14,2,0,0.04
2013-2-14,48.4,46.7,44.4,47.9,46.2,43.9,98,98,98,30.52,30.44,7,2,0,0.00
2013-2-15,51.1,47.3,41.4,50.6,46.8,40.9,98,98,98,30.52,30.14,8,4,0,0.00
2013-2-16,50.2,45.7,41.5,49.7,45.2,41.0,98,98,98,30.14,30.05,12,2,0,0.00
2013-2-17,45.7,42.1,38.3,45.2,41.6,37.8,98,98,98,30.20,30.06,7,1,0,0.00
2013-2-18,46.4,41.8,39.4,45.9,41.3,38.9,98,98,96,30.06,29.71,8,2,0,0.02
2013-2-19,48.9,42.7,37.4,47.9,41.9,36.9,98,97,89,29.96,29.69,10,2,0,0.03
2013-2-20,46.6,41.7,38.5,46.1,41.2,38.0,98,98,98,30.00,29.91,9,2,0,0.05
2013-2-21,45.5,42.5,39.6,45.0,42.0,39.1,98,98,98,30.02,29.93,11,2,0,0.01
2013-2-22,50.2,43.8,36.5,49.7,43.2,36.0,98,98,92,29.97,29.56,16,5,0,0.60
2013-2-23,48.6,41.2,35.1,47.6,40.4,34.6,98,97,88,30.33,29.84,8,2,0,0.00
2013-2-24,45.9,43.1,39.2,45.4,42.6,38.7,98,98,98,30.33,29.88,11,3,0,0.19
2013-2-25,51.3,43.0,34.9,46.1,40.8,34.4,98,92,65,30.27,29.81,12,4,0,0.21
2013-2-26,47.1,41.5,34.5,46.6,40.9,34.0,98,98,94,30.30,30.13,8,2,0,0.09
2013-2-27,49.5,44.3,40.5,49.0,43.8,40.0,98,98,93,30.26,30.14,7,1,0,0.06
2013-2-28,53.8,49.2,44.4,53.2,48.7,43.9,98,98,98,30.25,30.11,11,3,0,0.36
2013-3-1,56.8,54.0,52.5,56.2,53.4,52.0,98,98,98,30.27,30.19,15,7,0,0.01
2013-3-2,56.1,51.0,40.5,55.5,50.5,40.0,98,98,98,30.21,29.97,15,5,0,0.01
2013-3-3,49.5,42.3,38.1,46.1,41.3,37.6,98,96,77,30.27,30.15,9,1,0,0.00
2013-3-4,49.5,42.3,37.4,44.9,40.6,36.9,98,94,77,30.27,29.88,12,3,0,0.00
2013-3-5,49.3,43.5,37.6,48.5,43.0,37.1,98,98,97,29.90,29.68,8,2,0,0.27
2013-3-6,45.9,44.5,43.3,45.4,44.0,42.8,98,98,98,29.84,29.52,16,4,0,0.34
2013-3-7,51.3,46.4,42.4,50.6,45.9,41.9,98,98,96,30.05,29.84,8,2,0,0.06
2013-3-8,49.6,44.1,38.1,49.1,43.6,37.6,98,98,95,30.21,30.04,9,3,0,0.00
2013-3-9,52.0,43.1,37.6,51.5,42.6,37.1,98,98,98,30.46,30.21,5,1,0,0.00
2013-3-10,47.7,44.4,39.7,47.2,43.9,39.2,98,98,98,30.47,30.38,7,2,0,0.00
2013-3-11,51.4,47.4,45.1,50.9,46.9,44.6,98,98,98,30.41,30.10,6,1,0,0.05
2013-3-12,57.4,52.8,48.7,56.8,52.2,48.2,98,98,98,30.08,29.97,19,6,0,0.04
2013-3-13,57.0,53.6,51.6,56.4,53.0,51.1,98,98,98,30.11,30.01,12,6,0,0.00
2013-3-14,56.7,53.2,50.2,55.0,52.0,48.2,98,96,86,30.07,29.94,11,4,0,0.00
2013-3-15,60.3,53.0,47.5,58.1,52.3,47.0,98,98,92,30.14,30.06,11,4,0,0.00
2013-3-16,53.4,47.5,37.2,52.0,46.0,36.7,98,95,70,30.08,29.78,13,4,0,0.00
2013-3-17,48.4,41.0,35.2,46.6,40.2,34.7,98,97,86,30.13,29.92,14,3,0,0.00
2013-3-18,50.4,43.5,37.0,48.2,42.5,36.5,98,96,89,30.21,30.05,14,4,0,0.00
2013-3-19,51.8,43.0,37.8,48.5,42.4,37.3,98,98,84,30.20,29.54,6,1,0,0.92
2013-3-20,54.0,48.1,38.3,53.4,46.9,37.8,98,96,80,29.96,29.27,18,5,0,1.17
2013-3-21,45.5,39.6,34.9,45.0,39.0,34.4,98,98,89,30.17,29.96,13,3,0,0.04
2013-3-22,45.7,39.5,34.0,44.2,38.7,33.5,98,97,85,30.35,30.17,10,2,0,0.01
2013-3-23,48.6,41.0,36.0,44.0,39.7,35.5,98,95,79,30.37,30.26,6,1,0,0.00
2013-3-24,53.8,42.4,36.0,48.1,40.9,35.5,98,95,70,30.28,30.07,6,1,0,0.00
2013-3-25,59.7,46.4,37.8,47.9,42.7,37.3,98,88,57,30.09,29.88,5,1,0,0.00
2013-3-26,56.5,48.6,43.7,53.2,47.4,43.2,98,96,82,29.98,29.90,4,1,0,0.00
2013-3-27,56.5,49.3,45.1,55.9,48.8,44.6,98,98,98,29.95,29.89,6,1,0,0.00
2013-3-28,57.7,51.1,45.9,57.1,50.6,45.4,98,98,98,30.10,29.95,4,1,0,0.39
2013-3-29,59.7,51.8,45.9,57.7,51.2,45.4,98,98,91,30.22,30.11,7,2,0,0.01
2013-3-30,59.9,51.8,45.1,58.8,50.9,44.6,98,97,87,30.23,30.03,14,5,0,0.00
2013-3-31,67.6,53.4,45.5,56.7,50.6,45.0,98,91,64,30.04,29.85,8,2,0,0.00
2013-4-1,64.2,52.4,46.0,59.5,51.2,45.5,98,96,75,30.09,29.91,9,2,0,0.00
2013-4-2,54.5,50.1,44.6,53.9,49.6,44.1,98,98,98,30.15,30.09,10,3,0,0.00
2013-4-3,60.4,52.3,47.3,57.7,51.5,46.8,98,97,88,30.15,29.91,7,2,0,0.00
2013-4-4,57.4,52.4,48.9,56.8,51.9,48.4,98,98,98,29.90,29.55,12,2,0,0.76
2013-4-5,57.0,53.4,50.4,56.4,52.8,49.9,98,98,98,29.78,29.63,10,4,0,0.53
2013-4-6,55.6,50.2,46.2,53.4,49.4,45.7,98,97,86,29.83,29.60,11,5,0,0.35
2013-4-7,48.9,46.3,43.0,48.4,45.8,42.5,98,98,98,29.84,29.49,9,3,0,0.77
2013-4-8,55.4,48.6,43.9,54.8,48.0,43.4,98,98,98,30.22,29.84,4,1,0,0.03
2013-4-9,56.7,50.1,44.4,54.9,49.0,43.9,98,96,83,30.29,30.10,9,2,0,0.00
2013-4-10,58.6,52.6,46.4,58.0,51.8,45.9,98,97,89,30.19,29.85,14,5,0,0.31
2013-4-11,52.7,47.9,44.6,51.6,47.4,44.1,98,98,93,30.24,30.16,9,2,0,0.00
2013-4-12,47.8,45.4,42.8,47.2,44.8,42.3,98,98,89,30.15,29.61,13,3,0,0.09
2013-4-13,51.6,44.9,36.3,50.0,44.0,35.8,98,96,87,29.95,29.67,12,4,0,0.01
2013-4-14,52.3,45.1,39.2,49.1,43.9,38.7,98,96,81,29.97,29.86,10,2,0,0.00
2013-4-15,55.4,46.7,38.5,51.0,44.9,38.0,98,94,78,30.14,29.90,13,4,0,0.00
2013-4-16,57.9,47.3,38.8,51.1,43.1,35.9,98,87,44,30.36,30.14,14,4,0,0.00
2013-4-17,57.2,47.7,39.7,54.1,46.8,39.2,98,97,80,30.42,30.34,12,3,0,0.00
2013-4-18,54.5,49.2,42.6,53.9,48.7,42.1,98,98,98,30.41,30.13,11,3,0,0.00
2013-4-19,55.6,53.3,51.1,55.0,52.7,50.6,98,98,98,30.13,29.98,11,3,0,0.37
2013-4-20,55.4,51.2,49.1,54.8,50.7,48.6,98,98,98,30.22,30.13,11,3,0,0.00
2013-4-21,51.3,48.6,42.4,50.8,48.1,41.9,98,98,97,30.33,30.17,9,3,0,0.05
2013-4-22,58.5,49.1,39.7,51.6,44.1,36.0,98,84,59,30.49,30.34,11,4,0,0.00
2013-4-23,59.5,48.0,36.9,51.0,43.7,36.4,98,86,54,30.39,30.19,10,2,0,0.00
2013-4-24,67.3,52.3,40.5,57.3,47.4,40.0,98,86,49,30.29,30.01,7,2,0,0.00
2013-4-25,72.3,53.7,43.0,59.5,50.7,42.5,98,91,53,30.09,29.99,8,1,0,0.00
2013-4-26,66.4,53.5,46.9,61.1,52.1,46.4,98,95,72,30.21,30.10,10,2,0,0.00
2013-4-27,60.4,54.3,49.8,58.0,53.5,49.3,98,97,90,30.15,30.07,14,4,0,0.00
2013-4-28,55.6,51.7,49.3,54.4,51.1,48.8,98,98,84,30.16,29.86,13,5,0,0.00
2013-4-29,58.6,50.9,45.0,51.4,47.6,44.5,98,89,64,30.10,29.84,12,5,0,0.00
2013-4-30,53.6,46.8,38.8,49.9,45.1,38.3,98,94,79,30.41,30.11,9,3,0,0.00
2013-5-1,59.5,48.0,39.6,50.6,44.5,39.1,98,89,63,30.55,30.41,7,2,0,0.00
2013-5-2,63.0,52.4,41.9,54.3,47.5,41.4,98,84,57,30.51,30.32,14,4,0,0.00
2013-5-3,66.7,57.9,46.4,57.6,53.6,45.9,98,86,66,30.35,30.15,16,5,0,0.00
2013-5-4,75.7,62.6,50.9,58.7,53.5,44.1,98,74,35,30.19,29.93,11,4,0,0.00
2013-5-5,79.3,64.4,52.3,59.8,55.7,50.4,98,76,45,29.94,29.68,9,3,0,0.00
2013-5-6,79.7,63.7,50.7,68.3,59.4,50.2,98,87,62,29.80,29.67,7,2,0,0.00
2013-5-7,72.0,57.6,50.7,68.2,56.9,50.2,98,97,88,29.93,29.75,7,2,0,0.00
2013-5-8,66.4,56.2,52.0,62.2,55.3,51.5,98,97,85,30.09,29.94,9,2,0,0.00
2013-5-9,65.8,56.2,51.8,63.1,55.2,51.3,98,97,86,30.17,30.05,8,2,0,0.00
2013-5-10,68.4,55.6,49.8,65.7,54.7,49.3,98,97,78,30.16,30.06,8,3,0,0.00
2013-5-11,64.4,56.1,53.1,63.8,55.5,52.5,98,98,98,30.12,29.97,5,1,0,0.00
2013-5-12,68.7,62.8,57.6,68.1,62.2,57.0,98,98,98,30.00,29.92,9,3,0,0.09
2013-5-13,64.9,59.5,54.7,64.3,58.9,54.1,98,98,98,30.06,29.85,14,4,0,0.04
2013-5-14,61.3,55.0,46.8,60.7,54.5,46.3,98,98,98,30.18,30.06,8,2,0,0.00
2013-5-15,63.5,54.4,47.7,62.9,53.8,47.2,98,98,98,30.07,29.93,8,2,0,0.01
2013-5-16,66.6,59.3,54.3,66.0,58.7,53.7,98,98,98,29.95,29.80,8,2,0,0.01
2013-5-17,67.1,58.9,54.3,66.5,58.3,53.7,98,98,98,30.00,29.87,11,3,0,0.02
2013-5-18,64.6,56.6,51.1,64.0,56.0,50.6,98,98,90,30.22,29.99,12,3,0,0.00
2013-5-19,62.6,56.8,52.0,62.0,56.2,51.5,98,98,90,30.37,30.23,8,2,0,0.00
2013-5-20,65.8,56.6,49.6,64.9,56.0,49.1,98,98,93,30.31,29.85,12,3,0,0.00
2013-5-21,54.5,52.1,49.3,53.9,51.5,48.8,98,98,98,29.85,29.71,13,3,0,0.39
2013-5-22,55.2,51.7,49.1,54.6,51.2,48.6,98,98,98,29.88,29.79,8,2,0,0.20
2013-5-23,56.3,50.5,47.3,55.3,49.9,46.8,98,98,95,29.95,29.87,9,2,0,0.07
2013-5-24,63.1,54.9,48.2,60.1,53.4,47.7,98,95,79,29.99,29.91,9,3,0,0.00
2013-5-25,61.9,55.4,49.6,59.6,54.3,49.1,98,96,85,29.98,29.92,10,3,0,0.13
2013-5-26,66.0,57.3,53.4,64.3,56.5,52.8,98,97,87,29.93,29.86,8,3,0,0.16
2013-5-27,62.4,56.6,52.2,61.8,56.0,51.7,98,98,98,29.89,29.60,6,3,0,0.47
2013-5-28,65.3,57.7,52.3,62.3,55.9,51.8,98,94,80,29.81,29.69,15,5,0,0.00
2013-5-29,57.6,54.2,52.0,57.0,53.6,51.5,98,98,98,29.90,29.62,13,3,0,0.18
2013-5-30,62.6,55.5,48.6,62.0,54.9,48.1,98,98,98,30.19,29.90,14,4,0,0.00
2013-5-31,66.7,56.1,50.5,65.5,55.4,50.0,98,98,93,30.30,30.18,8,2,0,0.00
2013-6-1,67.6,58.7,51.8,67.0,58.1,51.3,98,98,94,30.21,29.99,10,3,0,0.00
2013-6-2,72.9,60.0,54.7,69.8,59.4,54.1,98,98,90,30.04,29.96,9,2,0,0.04
2013-6-3,71.8,58.1,50.5,68.8,57.4,50.0,98,98,90,30.07,29.99,7,2,0,0.00
2013-6-4,76.6,61.9,51.8,69.6,59.3,51.3,98,92,67,30.10,29.95,7,3,0,0.00
2013-6-5,71.6,63.2,53.4,70.3,62.6,52.8,98,98,90,30.06,29.95,8,4,0,0.00
2013-6-6,72.7,62.1,53.8,69.6,60.9,53.2,98,96,81,30.01,29.93,7,3,0,0.00
2013-6-7,64.2,59.6,55.4,63.6,59.0,54.8,98,98,98,30.08,29.95,9,4,0,0.00
2013-6-8,65.1,59.4,55.4,64.5,58.8,54.8,98,98,98,30.13,30.02,9,3,0,0.00
2013-6-9,61.0,57.2,52.7,60.4,56.6,52.2,98,98,98,30.06,29.97,8,3,0,0.00
2013-6-10,68.7,58.6,52.0,65.7,57.1,51.5,98,95,76,29.99,29.80,8,3,0,0.00
2013-6-11,65.1,57.7,51.8,64.5,57.1,51.3,98,98,91,30.04,29.86,10,4,0,0.00
2013-6-12,68.0,58.6,48.9,61.3,55.7,48.4,98,91,70,30.08,30.02,15,4,0,0.00
2013-6-13,66.7,59.4,53.6,66.1,58.4,53.0,98,97,73,30.15,30.07,9,2,0,0.01
2013-6-14,70.2,58.9,54.3,64.9,58.0,53.7,98,97,80,30.18,30.01,7,2,0,0.00
2013-6-15,71.2,62.4,52.7,68.6,60.7,52.2,98,94,80,30.00,29.85,11,4,0,0.00
2013-6-16,70.2,61.7,54.0,68.8,61.1,53.4,98,98,92,30.03,29.92,11,2,0,0.00
2013-6-17,75.6,62.9,54.9,68.9,60.8,54.3,98,94,64,30.03,29.80,10,2,0,0.01
2013-6-18,72.5,63.6,56.5,64.3,58.8,55.9,98,86,62,29.91,29.80,10,4,0,0.00
2013-6-19,64.2,59.1,53.2,63.6,58.5,52.6,98,98,98,29.94,29.84,9,2,0,0.01
2013-6-20,61.3,58.2,55.4,60.7,57.6,54.8,98,98,98,30.04,29.85,12,4,0,0.04
2013-6-21,69.6,60.8,56.1,67.4,60.1,55.5,98,98,88,30.11,30.03,7,2,0,0.00
2013-6-22,73.4,63.1,54.0,69.7,61.7,53.4,98,96,78,30.08,29.79,9,2,0,0.00
2013-6-23,68.9,64.1,58.6,68.3,63.5,58.0,98,98,98,29.79,29.52,6,1,0,0.30
2013-6-24,70.9,63.9,59.9,67.2,63.1,59.3,98,97,84,29.64,29.48,11,3,0,0.06
2013-6-25,71.4,62.5,58.3,69.4,61.8,57.7,98,98,90,29.78,29.59,11,3,0,0.47
2013-6-26,71.8,64.0,58.5,71.2,63.4,57.9,98,98,97,30.01,29.75,7,2,0,0.15
2013-6-27,73.2,65.0,59.9,72.6,64.4,59.3,98,98,98,30.14,29.97,6,1,0,0.34
2013-6-28,88.0,68.8,62.1,76.3,66.8,61.5,98,94,56,30.14,29.94,9,3,0,0.00
2013-6-29,80.2,69.8,62.2,76.9,68.6,61.6,98,96,80,30.04,29.90,9,3,0,0.00
2013-6-30,88.3,71.7,60.1,76.6,68.7,59.5,98,91,67,29.95,29.74,8,3,0,0.00
2013-7-1,78.6,69.5,61.9,76.6,68.5,61.3,98,97,86,29.95,29.83,10,4,0,0.00
2013-7-2,77.2,67.0,60.3,74.1,65.9,59.7,98,96,83,30.05,29.95,10,4,0,0.00
2013-7-3,74.8,66.3,59.7,71.4,65.3,59.1,98,97,80,30.10,29.96,11,5,0,0.00
2013-7-4,69.3,63.0,57.4,68.5,62.4,56.8,98,98,95,30.07,29.95,9,2,0,0.00
2013-7-5,72.7,64.9,56.5,71.0,64.0,55.9,98,97,91,29.98,29.87,10,3,0,0.00
2013-7-6,77.7,65.6,58.5,72.8,63.8,57.9,98,95,75,29.93,29.78,8,2,0,0.00
2013-7-7,79.2,66.1,58.5,77.4,65.4,57.9,98,98,87,29.89,29.78,10,3,0,0.00
2013-7-8,80.2,64.6,57.7,78.6,63.9,57.1,98,98,95,30.03,29.86,9,4,0,0.00
2013-7-9,76.3,66.6,58.8,72.9,64.9,58.2,98,95,79,30.08,29.91,9,4,0,0.00
2013-7-10,70.3,62.8,57.9,69.7,62.2,57.3,98,98,98,30.01,29.88,11,4,0,0.00
2013-7-11,65.7,60.7,57.0,64.3,59.9,56.4,98,97,89,30.01,29.93,10,3,0,0.00
2013-7-12,69.1,60.2,53.8,66.4,59.2,53.2,98,96,83,30.03,29.94,8,2,0,0.00
2013-7-13,74.7,63.5,52.3,65.0,59.3,51.8,98,88,58,30.15,30.02,7,2,0,0.00
2013-7-14,75.4,64.3,52.5,67.5,60.7,52.0,98,89,68,30.09,29.91,11,2,0,0.00
2013-7-15,78.4,67.2,54.7,64.2,59.4,54.1,98,78,53,30.01,29.79,17,5,0,0.00
2013-7-16,83.8,70.6,57.6,66.6,60.7,56.6,98,74,43,29.83,29.69,10,3,0,0.00
2013-7-17,73.6,67.2,61.5,66.8,64.3,60.9,98,91,78,30.11,29.77,12,4,0,0.00
2013-7-18,73.0,65.2,59.9,72.3,64.5,59.3,98,98,90,30.18,30.03,9,3,0,0.00
2013-7-19,73.4,64.6,56.7,71.0,63.5,56.1,98,96,86,30.13,29.96,9,3,0,0.00
2013-7-20,72.9,63.4,58.8,72.3,62.8,58.2,98,98,98,30.04,29.88,10,3,0,0.00
2013-7-21,75.2,64.5,58.6,74.6,63.9,58.0,98,98,98,29.92,29.82,9,4,0,0.00
2013-7-22,78.4,65.7,59.9,77.8,65.1,59.3,98,98,98,30.01,29.86,11,4,0,0.00
2013-7-23,77.2,64.7,58.5,76.6,64.1,57.9,98,98,98,30.02,29.88,10,4,0,0.00
2013-7-24,76.1,65.6,57.0,67.8,61.9,56.4,98,89,68,30.02,29.91,9,4,0,0.00
2013-7-25,76.1,64.3,54.5,73.5,62.2,53.9,98,94,76,30.05,29.97,11,4,0,0.00
2013-7-26,77.2,65.4,55.8,73.7,63.2,55.2,98,93,72,30.10,29.99,8,3,0,0.00
2013-7-27,59.9,56.7,54.1,59.3,56.1,53.5,98,98,98,30.11,30.05,4,1,0,0.00